• Join FlightAware (Why Join?)
  • Login
  • US Flag 
01:55PM EST


 

Airport Tracker/Info


-or-


 

Live Flight TrackerFlight Track Log ✈ DAL2037 ✈ 24-Apr-2013 ✈ KMSP - KSJC

Flight Track Log - Related Links

Times and Time Zones

All times are in EDT time to prevent confusion due to time zone crossing. See the DAL2037 flight status page for this flight to view local times or setup timezone preferences in your user account.

Time Position Orientation Groundspeed Altitude Reporting Facility
EDT Latitude Longitude Course Direction KTS MPH feet Rate Location/Type
10:46AM 44.8939 -93.2606 235° Southwest 174 200 2,300  Level FAA TRACON SMA TRACON (SMA)
10:46AM 44.8908 -93.2817 258° West 176 203 2,800 1,200 Climbing FAA TRACON SMA TRACON (SMA)
10:46AM 44.8864 -93.3128 259° West 203 234 3,100 1,620 Climbing FAA TRACON SMA TRACON (SMA)
10:47AM 44.8828 -93.3406 260° West 231 266 3,900 3,120 Climbing FAA TRACON SMA TRACON (SMA)
10:47AM 44.8783 -93.3758 260° West 240 276 5,200 3,300 Climbing FAA TRACON SMA TRACON (SMA)
10:47AM 44.8742 -93.4042 258° West 240 276 6,100 2,220 Climbing FAA TRACON SMA TRACON (SMA)
10:48AM 44.7062 -93.5855 239° Southwest  Level FlightAware Approximate
10:48AM 44.8703 -93.4339 260° West 246 283 6,700  Level FAA TRACON SMA TRACON (SMA)
10:48AM 44.8644 -93.4703 257° West 248 285 6,900 1,140 Climbing FAA TRACON SMA TRACON (SMA)
10:48AM 44.8528 -93.4958 237° Southwest 256 295 7,500 2,340 Climbing FAA TRACON SMA TRACON (SMA)
10:49AM 44.6406 -93.7076 237° Southwest  Level FlightAware Approximate
10:49AM 44.8361 -93.5169 222° Southwest 261 300 8,500  Level FAA TRACON SMA TRACON (SMA)
10:49AM 44.8192 -93.5383 222° Southwest 263 303 9,300 2,220 Climbing FAA TRACON SMA TRACON (SMA)
10:50AM 44.5809 -93.8358 215° Southwest  Level FlightAware Approximate
10:50AM 44.7806 -93.5889 223° Southwest 276 318 10,700  Level FAA TRACON SMA TRACON (SMA)
10:50AM 44.7578 -93.6206 225° Southwest 298 343 11,000 900 Climbing FAA TRACON SMA TRACON (SMA)
10:50AM 44.7367 -93.6472 222° Southwest 321 369 11,300 1,200 Climbing FAA TRACON SMA TRACON (SMA)
10:51AM 44.5085 -93.9497 235° Southwest  Level FlightAware Approximate
10:51AM 44.7156 -93.6753 223° Southwest 339 390 11,800  Level FAA TRACON SMA TRACON (SMA)
10:51AM 44.6883 -93.7111 223° Southwest 349 402 12,600 2,100 Climbing FAA TRACON SMA TRACON (SMA)
10:52AM 44.6428 -93.7689 222° Southwest 360 414 13,900 2,280 Climbing FAA TRACON SMA TRACON (SMA)
10:52AM 44.6139 -93.8061 223° Southwest 366 421 14,900 2,400 Climbing FAA TRACON SMA TRACON (SMA)
10:52AM 44.5919 -93.8372 225° Southwest 366 421 15,500 1,800 Climbing FAA TRACON SMA TRACON (SMA)
10:53AM 44.5714 -93.8706 229° Southwest 369 425 16,100 2,220 Climbing FAA TRACON SMA TRACON (SMA)
10:53AM 44.5478 -93.9153 233° Southwest 370 426 17,000 2,400 Climbing FAA TRACON SMA TRACON (SMA)
10:53AM 44.5297 -93.9514 235° Southwest 369 425 17,700 1,860 Climbing FAA TRACON SMA TRACON (SMA)
10:54AM 44.5114 -93.9878 235° Southwest 370 426 18,300 1,860 Climbing FAA TRACON SMA TRACON (SMA)
10:54AM 44.4875 -94.0331 234° Southwest 373 429 19,000 1,920 Climbing FAA TRACON SMA TRACON (SMA)
10:54AM 44.4689 -94.0697 235° Southwest 376 433 19,600 1,500 Climbing FAA TRACON SMA TRACON (SMA)
10:55AM 44.4492 -94.1061 233° Southwest 381 438 20,000 1,800 Climbing FAA TRACON SMA TRACON (SMA)
10:55AM 44.4256 -94.1533 235° Southwest 384 442 20,800 1,920 Climbing FAA TRACON SMA TRACON (SMA)
10:55AM 44.4064 -94.1906 234° Southwest 384 442 21,300 1,200 Climbing FAA TRACON SMA TRACON (SMA)
10:56AM 44.3869 -94.2289 235° Southwest 390 449 21,600 1,500 Climbing FAA TRACON SMA TRACON (SMA)
10:56AM 44.3614 -94.2758 233° Southwest 395 455 22,300 1,620 Climbing FAA TRACON SMA TRACON (SMA)
10:56AM 44.3419 -94.3147 235° Southwest 397 457 22,700 1,260 Climbing FAA TRACON SMA TRACON (SMA)
10:57AM 44.3208 -94.3522 232° Southwest 397 457 23,200 1,020 Climbing FAA TRACON SMA TRACON (SMA)
10:57AM 44.3108 -94.3714 234° Southwest 399 459 23,400 1,260 Climbing FAA TRACON SMA TRACON (SMA)
10:58AM 44.2389 -94.4981 232° Southwest 401 461 24,800 1,920 Climbing Minneapolis Center
10:59AM 44.1636 -94.6367 233° Southwest 401 461 27,200 1,200 Climbing Minneapolis Center
11:00AM 44.0994 -94.7583 234° Southwest 393 452 27,600 360 Climbing Minneapolis Center
11:02AM 44.0144 -94.9131 233° Southwest 417 480 28,100 780 Climbing Minneapolis Center
11:03AM 43.9289 -95.0736 234° Southwest 429 494 29,400 1,020 Climbing Minneapolis Center
11:04AM 43.8703 -95.1783 232° Southwest 429 494 30,300 840 Climbing Minneapolis Center
11:05AM 43.7850 -95.3336 233° Southwest 423 487 31,200 780 Climbing Minneapolis Center
11:06AM 43.7389 -95.4794 246° West 415 478 32,000 360 Climbing Minneapolis Center
11:07AM 43.7125 -95.6333 257° West 412 474 32,000  Level Minneapolis Center
11:08AM 43.6797 -95.8200 256° West 414 476 32,000  Level Minneapolis Center
11:09AM 43.6522 -95.9742 256° West 412 474 32,000  Level Minneapolis Center
11:10AM 43.6244 -96.1289 256° West 412 474 32,000  Level Minneapolis Center
11:11AM 43.5969 -96.2814 256° West 410 472 32,000  Level Minneapolis Center
11:12AM 43.5694 -96.4336 256° West 409 471 32,000  Level Minneapolis Center
11:13AM 43.5417 -96.5856 256° West 409 471 32,000  Level Minneapolis Center
11:14AM 43.5083 -96.7669 256° West 407 468 32,000  Level Minneapolis Center
11:15AM 43.4794 -96.9150 255° West 403 464 32,000  Level Minneapolis Center
11:16AM 43.4522 -97.0636 256° West 400 460 32,000  Level Minneapolis Center
11:17AM 43.4242 -97.2114 255° West 400 460 32,000  Level Minneapolis Center
11:18AM 43.3967 -97.3586 256° West 399 459 32,000 300 Level Minneapolis Center
11:19AM 43.3619 -97.5367 255° West 401 461 32,700 480 Climbing Minneapolis Center
11:20AM 43.3331 -97.6847 255° West 401 461 33,000 600 Climbing Minneapolis Center
11:21AM 43.2989 -97.8633 255° West 403 464 34,000 480 Climbing Minneapolis Center
11:22AM 43.2700 -98.0133 255° West 404 465 34,000  Level Minneapolis Center
11:23AM 43.2406 -98.1614 255° West 406 467 34,000  Level Minneapolis Center
11:24AM 43.2119 -98.3100 255° West 404 465 34,000  Level Minneapolis Center
11:25AM 43.1836 -98.4547 255° West 399 459 34,000  Level Minneapolis Center
11:27AM 43.1539 -98.6003 254° West 398 458 34,000  Level Minneapolis Center
11:28AM 43.1128 -98.7992 254° West 390 449 34,000  Level Minneapolis Center
11:29AM 43.0897 -98.9125 254° West 389 448 34,000  Level Minneapolis Center
11:30AM 43.0536 -99.0878 254° West 387 445 34,000  Level Minneapolis Center
11:31AM 43.0242 -99.2317 254° West 392 451 34,000  Level Minneapolis Center
11:32AM 42.9878 -99.4019 254° West 391 450 34,000  Level Minneapolis Center
11:33AM 42.9578 -99.5456 254° West 393 452 34,000  Level Minneapolis Center
11:34AM 42.9269 -99.6908 254° West 391 450 34,000  Level Minneapolis Center
11:35AM 42.8958 -99.8333 253° West 391 450 34,000  Level Minneapolis Center
11:36AM 42.8706 -99.9489 253° West 391 450 34,000  Level Denver Center
11:37AM 42.8397 -100.0922 254° West 393 452 34,000  Level Denver Center
11:38AM 42.8086 -100.2342 253° West 392 451 34,000  Level Denver Center
11:39AM 42.7700 -100.4067 253° West 396 456 34,000  Level Denver Center
11:40AM 42.7383 -100.5500 253° West 394 453 34,000  Level Denver Center
11:41AM 42.7050 -100.6994 253° West 397 457 34,000  Level Denver Center
11:42AM 42.6747 -100.8356 253° West 395 455 34,000  Level Denver Center
11:43AM 42.6392 -100.9942 253° West 394 453 34,000  Level Denver Center
11:44AM 42.6086 -101.1303 253° West 394 453 34,000  Level Denver Center
11:45AM 42.5711 -101.2889 252° West 395 455 34,000  Level Denver Center
11:46AM 42.5394 -101.4281 253° West 401 461 34,000  Level Denver Center
11:47AM 42.5028 -101.5886 253° West 401 461 34,000  Level Denver Center
11:48AM 42.4700 -101.7286 252° West 406 467 34,000  Level Denver Center
11:49AM 42.4372 -101.8667 252° West 398 458 34,000  Level Denver Center
11:50AM 42.3989 -102.0278 252° West 402 463 34,000  Level Denver Center
11:51AM 42.3656 -102.1664 252° West 403 464 34,000  Level Denver Center
11:52AM 42.3275 -102.3289 252° West 406 467 34,000  Level Denver Center
11:53AM 42.2931 -102.4686 252° West 409 471 34,000  Level Denver Center
11:55AM 42.2539 -102.6289 252° West 405 466 34,000  Level Denver Center
11:56AM 42.2206 -102.7650 252° West 400 460 34,000  Level Denver Center
11:57AM 42.1811 -102.9253 252° West 403 464 34,000  Level Denver Center
11:58AM 42.1469 -103.0600 251° West 399 459 34,000  Level Denver Center
11:59AM 42.1078 -103.2186 252° West 400 460 34,000  Level Denver Center
12:00PM 42.0733 -103.3556 251° West 405 466 34,000  Level Denver Center
12:01PM 42.0331 -103.5142 251° West 402 463 34,000  Level Denver Center
12:02PM 41.9981 -103.6531 251° West 408 470 34,000  Level Denver Center
12:03PM 41.9628 -103.7911 251° West 407 468 34,000  Level Denver Center
12:04PM 41.9203 -103.9544 251° West 413 475 34,000  Level Denver Center
12:05PM 41.8850 -104.0939 251° West 411 473 34,000  Level Denver Center
12:06PM 41.8428 -104.2553 251° West 410 472 34,000  Level Denver Center
12:07PM 41.8067 -104.3925 251° West 407 468 34,000  Level Denver Center
12:08PM 41.7642 -104.5539 251° West 410 472 34,000  Level Denver Center
12:09PM 41.7275 -104.6928 251° West 412 474 34,000  Level Denver Center
12:11PM 41.6594 -104.9456 250° West 410 472 34,000  Level Salt Lake Center
12:11PM 41.6481 -104.9908 251° West 409 471 34,000  Level Denver Center
12:12PM 41.6053 -105.1503 250° West 407 468 34,000  Level Denver Center
12:13PM 41.5681 -105.2850 250° West 404 465 34,000  Level Denver Center
12:14PM 41.5308 -105.4194 250° West 405 466 34,000  Level Denver Center
12:15PM 41.4878 -105.5769 250° West 405 466 34,000  Level Denver Center
12:16PM 41.4500 -105.7108 249° West 404 465 34,000  Level Denver Center
12:17PM 41.4064 -105.8672 250° West 403 464 34,000  Level Denver Center
12:18PM 41.3694 -106.0036 250° West 408 470 34,000  Level Denver Center
12:19PM 41.3242 -106.1617 249° West 409 471 34,000  Level Denver Center
12:20PM 41.2853 -106.3008 250° West 412 474 34,100  Climbing Denver Center
12:21PM 41.2392 -106.4594 249° West 411 473 34,000 -60 Descending Denver Center
12:22PM 41.2017 -106.5892 249° West 395 455 34,000  Level Denver Center
12:23PM 41.1589 -106.7381 249° West 386 444 34,000  Level Denver Center
12:25PM 41.1228 -106.8656 249° West 387 445 34,000  Level Denver Center
12:26PM 41.0869 -106.9906 249° West 381 438 34,000  Level Denver Center
12:27PM 41.0436 -107.1383 249° West 384 442 34,000  Level Denver Center
12:28PM 41.0064 -107.2636 249° West 383 441 34,100  Climbing Denver Center
12:29PM 40.9639 -107.4089 249° West 378 435 34,000 -60 Descending Denver Center
12:30PM 40.9267 -107.5336 248° West 380 437 34,000  Level Denver Center
12:31PM 40.8836 -107.6767 248° West 377 434 34,000  Level Denver Center
12:32PM 40.8469 -107.8011 249° West 380 437 34,000  Level Denver Center
12:33PM 40.8014 -107.9519 248° West 394 453 34,000  Level Denver Center
12:34PM 40.7622 -108.0814 248° West 397 457 34,000  Level Denver Center
12:35PM 40.7214 -108.2128 248° West 390 449 34,000  Level Denver Center
12:36PM 40.6756 -108.3633 248° West 395 455 34,000  Level Denver Center
12:37PM 40.6508 -108.4450 248° West 395 455 34,000  Level Salt Lake Center
12:38PM 40.6047 -108.5944 248° West 395 455 34,000  Level Salt Lake Center
12:38PM 40.5894 -108.6408 247° West 397 457 34,000  Level Denver Center
12:39PM 40.5503 -108.7672 248° West 393 452 34,000  Level Denver Center
12:40PM 40.5050 -108.9131 248° West 387 445 34,000  Level Denver Center
12:41PM 40.4792 -108.9981 248° West 388 447 34,000  Level Salt Lake Center
12:42PM 40.4392 -109.1222 247° West 387 445 34,000  Level Salt Lake Center
12:42PM 40.4194 -109.1836 247° West 388 447 34,000  Level Denver Center
12:43PM 40.3808 -109.3094 248° West 388 447 34,000  Level Denver Center
12:44PM 40.3525 -109.3947 246° West 392 451 34,000  Level Salt Lake Center
12:45PM 40.3056 -109.5417 247° West 392 451 34,000  Level Salt Lake Center
12:46PM 40.2661 -109.6669 248° West 392 451 34,000  Level Salt Lake Center
12:47PM 40.2181 -109.8119 247° West 391 450 34,000  Level Salt Lake Center
12:48PM 40.1783 -109.9347 247° West 387 445 34,000  Level Salt Lake Center
12:49PM 40.1322 -110.0781 247° West 384 442 34,000  Level Salt Lake Center
12:50PM 40.0925 -110.2006 247° West 385 443 34,000  Level Salt Lake Center
12:51PM 40.0517 -110.3219 246° West 383 441 34,000  Level Salt Lake Center
12:52PM 40.0053 -110.4631 247° West 381 438 34,000  Level Salt Lake Center
12:53PM 39.9714 -110.5847 250° West 376 433 34,000  Level Salt Lake Center
12:54PM 39.9358 -110.7278 252° West 372 428 34,000  Level Salt Lake Center
12:55PM 39.9056 -110.8517 252° West 377 434 34,000  Level Salt Lake Center
12:56PM 39.8719 -110.9897 252° West 359 413 34,000  Level Salt Lake Center
12:57PM 39.8422 -111.1072 252° West 358 412 34,000  Level Salt Lake Center
12:58PM 39.8069 -111.2447 252° West 359 413 34,000  Level Salt Lake Center
12:59PM 39.7781 -111.3608 252° West 356 410 34,000  Level Salt Lake Center
01:00PM 39.7472 -111.4808 252° West 361 415 34,000  Level Salt Lake Center
01:01PM 39.7158 -111.6042 252° West 359 413 34,000  Level Salt Lake Center
01:02PM 39.6775 -111.7522 251° West 361 415 34,000  Level Salt Lake Center
01:03PM 39.6456 -111.8753 251° West 360 414 34,000  Level Salt Lake Center
01:04PM 39.6144 -111.9986 252° West 359 413 34,000  Level Salt Lake Center
01:05PM 39.5817 -112.1231 251° West 362 417 34,000  Level Salt Lake Center
01:06PM 39.5494 -112.2467 251° West 362 417 34,000  Level Salt Lake Center
01:07PM 39.5164 -112.3694 251° West 362 417 34,000  Level Salt Lake Center
01:08PM 39.4828 -112.4956 251° West 368 423 34,000  Level Salt Lake Center
01:09PM 39.4497 -112.6189 251° West 365 420 34,000  Level Salt Lake Center
01:11PM 39.4131 -112.7497 250° West 373 429 34,000  Level Salt Lake Center
01:12PM 39.3717 -112.9053 251° West 381 438 34,000  Level Salt Lake Center
01:13PM 39.3369 -113.0342 251° West 381 438 34,000  Level Salt Lake Center
01:14PM 39.3019 -113.1625 251° West 381 438 34,000  Level Salt Lake Center
01:15PM 39.2675 -113.2906 251° West 379 436 34,000  Level Salt Lake Center
01:16PM 39.2303 -113.4194 250° West 382 440 34,000  Level Salt Lake Center
01:17PM 39.1961 -113.5433 250° West 375 432 34,000  Level Salt Lake Center
01:18PM 39.1622 -113.6667 251° West 370 426 34,000  Level Salt Lake Center
01:19PM 39.1206 -113.8125 250° West 365 420 34,000  Level Salt Lake Center
01:20PM 39.0875 -113.9333 251° West 361 415 34,000  Level Salt Lake Center
01:21PM 39.0525 -114.0578 250° West 366 421 34,000  Level Salt Lake Center
01:22PM 39.0183 -114.1806 250° West 366 421 34,000  Level Salt Lake Center
01:23PM 38.9831 -114.3025 250° West 366 421 34,000  Level Salt Lake Center
01:24PM 38.9481 -114.4272 250° West 372 428 34,000  Level Salt Lake Center
01:25PM 38.9050 -114.5758 250° West 373 429 34,000 -180 Level Salt Lake Center
01:26PM 38.8703 -114.6981 250° West 368 423 33,700 -660 Descending Salt Lake Center
01:27PM 38.8333 -114.8206 249° West 370 426 32,700 -1,080 Descending Salt Lake Center
01:28PM 38.7992 -114.9389 250° West 360 414 31,500 -1,080 Descending Salt Lake Center
01:29PM 38.7614 -115.0647 249° West 370 426 30,500 -1,020 Descending Salt Lake Center
01:30PM 38.7217 -115.1989 249° West 390 449 29,500 -1,080 Descending Salt Lake Center
01:31PM 38.6733 -115.3631 249° West 406 467 28,300 -780 Descending Salt Lake Center
01:32PM 38.6311 -115.5022 249° West 416 479 28,000 -180 Descending Salt Lake Center
01:33PM 38.5897 -115.6394 249° West 414 476 28,000  Level Salt Lake Center
01:34PM 38.5494 -115.7783 250° West 417 480 28,000  Level Salt Lake Center
01:35PM 38.5061 -115.9164 248° West 418 481 28,000  Level Salt Lake Center
01:36PM 38.4647 -116.0556 249° West 420 483 28,000  Level Salt Lake Center
01:37PM 38.4303 -116.1669 248° West 420 483 28,000  Level Oakland Center
01:38PM 38.3697 -116.3314 245° Southwest 428 493 28,000  Level Oakland Center
01:39PM 38.3075 -116.4933 244° Southwest 426 490 28,000  Level Salt Lake Center
01:40PM 38.2644 -116.6025 243° Southwest 428 493 28,000  Level Oakland Center
01:41PM 38.2131 -116.7372 244° Southwest 424 488 28,000  Level Oakland Center
01:42PM 38.1617 -116.8692 244° Southwest 418 481 28,000  Level Oakland Center
01:43PM 38.1103 -117.0019 244° Southwest 416 479 28,000  Level Oakland Center
01:44PM 38.0564 -117.1372 243° Southwest 418 481 28,000  Level Oakland Center
01:45PM 38.0019 -117.2750 243° Southwest 424 488 28,000  Level Oakland Center
01:46PM 37.9633 -117.4156 251° West 419 482 28,000  Level Oakland Center
01:47PM 37.9300 -117.5583 254° West 422 486 28,000  Level Oakland Center
01:48PM 37.8961 -117.6997 253° West 421 484 28,000  Level Oakland Center
01:49PM 37.8625 -117.8422 253° West 421 484 28,000  Level Oakland Center
01:50PM 37.8211 -118.0147 253° West 427 491 28,000  Level Oakland Center
01:51PM 37.7864 -118.1581 253° West 428 493 28,000  Level Oakland Center
01:52PM 37.7511 -118.3019 253° West 429 494 28,000  Level Oakland Center
01:54PM 37.7167 -118.4469 253° West 430 495 28,000  Level Oakland Center
01:55PM 37.6808 -118.5933 253° West 435 501 28,000  Level Oakland Center
01:56PM 37.6464 -118.7372 253° West 431 496 28,000  Level Oakland Center
01:57PM 37.6053 -118.9025 253° West 436 502 28,000  Level Oakland Center
01:58PM 37.5656 -119.0456 251° West 434 499 28,000 -120 Level Oakland Center
01:59PM 37.5339 -119.2033 256° West 479 551 27,800 -600 Descending Oakland Center
02:00PM 37.4969 -119.3428 252° West 426 490 26,800 -1,020 Descending Oakland Center
02:01PM 37.4567 -119.4956 252° West 418 481 25,800 -960 Descending Oakland Center
02:02PM 37.4231 -119.6208 251° West 418 481 24,900 -960 Descending Oakland Center
02:03PM 37.3883 -119.7567 252° West 409 471 23,900 -1,020 Descending Oakland Center
02:04PM 37.3517 -119.8925 251° West 410 472 22,900 -1,080 Descending Oakland Center
02:05PM 37.3100 -120.0525 252° West 401 461 21,800 -1,080 Descending Oakland Center
02:06PM 37.2758 -120.1836 252° West 397 457 20,700 -1,260 Descending Oakland Center
02:07PM 37.2411 -120.3147 252° West 397 457 19,300 -1,620 Descending Oakland Center
02:08PM 37.2108 -120.4406 253° West 384 442 17,500 -1,680 Descending Oakland Center
02:09PM 37.1839 -120.5656 255° West 371 427 15,900 -1,740 Descending Oakland Center
02:10PM 37.1500 -120.7167 254° West 360 414 13,800 -1,680 Descending Northern Cal TRACON
02:11PM 37.1333 -120.8333 260° West 347 399 12,300 -1,380 Descending Northern Cal TRACON
02:12PM 37.1092 -120.9139 249° West 317 365 11,200 -1,140 Descending Oakland Center
02:13PM 37.0850 -121.0214 254° West 319 367 10,100 -600 Descending Oakland Center
02:14PM 37.0444 -121.1286 245° Southwest 288 331 10,000 -60 Descending Oakland Center
02:15PM 37.0067 -121.2217 243° Southwest 293 337 10,000  Level Oakland Center
02:16PM 36.9706 -121.3142 244° Southwest 296 341 10,000 -840 Level Oakland Center
02:17PM 36.9511 -121.4106 256° West 300 345 8,300 -1,020 Descending Oakland Center
02:18PM 36.9981 -121.4894 307° West 287 330 8,000 -300 Descending Oakland Center
02:19PM 37.0492 -121.5578 313° West 274 315 7,700 -300 Descending Oakland Center
02:20PM 37.1006 -121.6267 313° West 271 312 7,500 -900 Descending Oakland Center
02:21PM 37.1511 -121.6994 311° West 273 314 5,900 -1,440 Descending Oakland Center
02:22PM 37.2103 -121.7622 320° Northwest 234 269 4,600 -1,260 Descending Oakland Center